TimePST,TemperatureF,Dew PointF,Humidity,Sea Level PressureIn,VisibilityMPH,Wind Direction,Wind SpeedMPH,Gust SpeedMPH,PrecipitationIn,Events,Conditions,WindDirDegrees,DateUTC
12:06 AM,21.2,19.4,93,29.42,4.0,Variable,6.9,-,N/A,,Overcast,0,2012-02-29 08:06:00
1:26 AM,21.2,19.4,93,29.42,10.0,Variable,5.8,-,N/A,,Overcast,0,2012-02-29 09:26:00
2:05 AM,21.2,19.4,93,29.44,2.5,Variable,4.6,-,0.00,Snow,Light Snow,0,2012-02-29 10:05:00
2:50 AM,21.2,21.2,100,29.43,1.0,East,4.6,-,0.04,Snow,Light Snow,100,2012-02-29 10:50:00
3:34 AM,21.2,21.2,100,29.44,3.0,Calm,Calm,-,0.02,Snow,Light Snow,0,2012-02-29 11:34:00
4:56 AM,21.0,19.0,92,29.55,10.0,Calm,Calm,-,0.00,,Overcast,0,2012-02-29 12:56:00
5:43 AM,21.2,19.4,93,29.45,10.0,Calm,Calm,-,N/A,,Overcast,0,2012-02-29 13:43:00
7:01 AM,19.4,17.6,93,29.45,0.8,Calm,Calm,-,N/A,,Mostly Cloudy,0,2012-02-29 15:01:00
7:06 AM,19.4,19.4,100,29.45,0.2,East,3.5,-,N/A,Fog,Light Freezing Fog,90,2012-02-29 15:06:00
7:11 AM,19.4,19.4,100,29.45,0.2,Calm,Calm,-,N/A,Fog,Light Freezing Fog,0,2012-02-29 15:11:00
7:56 AM,21.9,19.9,92,29.57,0.2,Calm,Calm,-,N/A,Fog,Light Freezing Fog,0,2012-02-29 15:56:00
9:05 AM,21.2,19.4,93,29.45,6.0,East,3.5,-,N/A,,Overcast,100,2012-02-29 17:05:00
9:21 AM,21.2,19.4,93,29.45,1.8,Variable,3.5,-,0.00,Snow,Light Snow,0,2012-02-29 17:21:00
9:56 AM,21.0,19.9,96,29.57,0.5,Variable,4.6,-,0.01,Fog-Snow,Light Snow,0,2012-02-29 17:56:00
11:03 AM,21.2,19.4,93,29.47,0.5,Variable,3.5,-,0.01,Fog-Snow,Snow,0,2012-02-29 19:03:00
11:20 AM,21.2,19.4,93,29.48,0.2,Calm,Calm,-,0.02,Fog-Snow,Snow,0,2012-02-29 19:20:00
11:31 AM,21.2,19.4,93,29.48,0.5,Variable,3.5,-,0.02,Fog-Snow,Snow,0,2012-02-29 19:31:00
12:28 PM,21.2,19.4,93,29.49,0.2,Variable,4.6,-,0.02,Fog-Snow,Snow,0,2012-02-29 20:28:00
12:56 PM,21.9,19.9,92,29.61,0.2,East,3.5,-,0.07,Fog-Snow,Snow,90,2012-02-29 20:56:00
1:41 PM,24.8,21.2,86,29.50,0.2,Calm,Calm,-,0.05,Fog-Snow,Snow,0,2012-02-29 21:41:00
1:56 PM,24.1,21.9,91,29.61,0.5,Calm,Calm,-,0.06,Fog-Snow,Light Snow,0,2012-02-29 21:56:00
4:56 PM,25.0,24.1,96,29.65,0.2,Variable,6.9,-,0.05,Fog-Snow,Snow,0,2012-03-01 00:56:00
5:56 PM,25.0,23.0,92,29.66,0.5,North,-9999.0,-,0.06,Fog-Snow,Snow,0,2012-03-01 01:56:00
6:56 PM,25.0,23.0,92,29.68,0.5,Variable,4.6,-,0.09,Fog-Snow,Light Snow,0,2012-03-01 02:56:00
9:24 PM,24.8,23.0,93,29.61,0.5,Variable,4.6,-,0.04,Fog-Snow,Snow,0,2012-03-01 05:24:00
10:16 PM,24.8,21.2,86,29.62,1.0,Variable,6.9,18.4,0.00,Snow,Light Snow,0,2012-03-01 06:16:00
11:33 PM,23.0,21.2,93,29.63,0.5,Variable,4.6,-,0.01,Fog-Snow,Light Snow,0,2012-03-01 07:33:00